Location: Newark
(22.3060°N, 114.2134°E)
Time: 22:04:44
(UTC+00:00)

Vanguard 2 - Pass Details

Date: 08 August 2021
Orbit: 553 x 2937 km, 32.9° (Epoch: 26 September)

Event Time Altitude Azimuth Distance (km) Brightness Sun altitude
Rises 18:11:08 0° 262° (W) 3,710 - -44.3°
Reaches altitude 10° 18:14:23 10° 270° (W) 2,445 - -43.9°
Maximum altitude 18:19:24 38° 338° (NNW) 983 - -43.2°
Drops below altitude 10° 18:23:15 10° 49° (NE) 1,864 - -42.6°
Exits shadow 18:24:36 - 55° (NE) 2,386 10.8 -42.4°
Sets 18:25:25 0° 58° (ENE) 2,715 11.1 -42.3°
